Weather Roundup
Issued by NWS Chicago, IL

Home | Current Version | Previous Version | Graphics & Text | Print | Product List | Glossary On
Versions: 1 2 3 4 5 6 7 8 9 10 11 12 13 14 15 16 17 18 19 20 21 22 23 24 25 26 27 28 29 30 31 32 33 34 35 36 37 38 39 40 41 42 43 44 45 46 47 48 49 50
000
NZUS59 KLOT 270303
HRRLOT

CHICAGO AREA WEATHER ROUNDUP
NATIONAL WEATHER SERVICE CHICAGO/ROMEOVILLE IL
1000 PM CDT TUE JUL 26 2016

NOTE: "FAIR" INDICATES FEW OR NO CLOUDS BELOW 12,000 FEET WITH NO
SIGNIFICANT WEATHER AND/OR OBSTRUCTIONS TO VISIBILITY.

* THESE STATIONS ARE NOT UNDER NWS QUALITY CONTROL. THEY ALSO MAY NOT
  REPORT WEATHER SUCH AS PRECIPITATION OR FOG.

ILZ005-006-012>014-019>023-270400-
NORTHEAST ILLINOIS

CITY           SKY/WX    TMP DP  RH WIND       PRES   REMARKS
OHARE          PTCLDY    77  62  59 CALM      30.01R
MIDWAY         PTCLDY    81  61  50 VRB3      30.01R HX  82
AURORA         CLEAR     72  69  90 CALM      30.02R FOG
LANSING*       PTCLDY    76  60  56 SE3       30.02R
WAUKEGAN       CLEAR     70  64  81 CALM      30.00F
DUPAGE AIRPORT CLEAR     76  64  66 CALM      30.02R
WHEELING       CLEAR     75  64  68 CALM      30.03R
KANKAKEE*      CLEAR     73  70  91 CALM      30.03R
MORRIS*        MOCLDY    75  70  86 CALM      30.01R
NORTHERLY ISL    N/A     74  68  81 CALM        N/A
$$

WIZ051-052-058>065-066-070>072-270400-
SOUTHEAST WISCONSIN

CITY           SKY/WX    TMP DP  RH WIND       PRES   REMARKS
MILWAUKEE      CLEAR     77  62  59 S6        30.00R
KENOSHA*       CLEAR     74  64  71 S7        30.01S
RACINE*        CLEAR     72  65  78 S3        30.02S
BURLINGTON     CLEAR     69  66  89 CALM      30.02R
WAUKESHA       CLEAR     72  63  73 S5        30.02S
$$

INZ001>003-010>013-019-020-270400-
NORTHWEST INDIANA

CITY           SKY/WX    TMP DP  RH WIND       PRES   REMARKS
GARY*          PTCLDY    73  72  94 SE3       30.02S
MICHIGAN CITY* NOT AVBL
RENSSELAER*    NOT AVBL
VALPARAISO     PTCLDY    72  64  76 CALM      30.03R
$$

LMZ740>746-270400-
SOUTHERN LAKE MICHIGAN

STATION/POSITION TIME  SKY/WX   TEMP WIND        PRES    VSBY
                                AIR  DIR/SP/G
                 (UTC)          (F)  (DEG/KT/KT) (MB)    (MI)
HARRISON CRIB    0200            77  140/  4/  5   N/A
BURNHAM HARBOR   0300            74   CALM  /  3   N/A
CALUMET HARBOR   0200            77                N/A
BURNS HARBOR     0240            76   90/  4/  5 1016.9S
MICHIGAN CITY    0200            76   30/  6/  6   N/A
$$

ABBREVIATIONS USED IN REMARKS
   TC - TEMPERATURE IN CELSIUS
  WCI - WIND CHILL INDEX
   HX - HEAT INDEX
  VSB - VISIBILITY
$$




USA.gov is the U.S. government's official web portal to all federal, state and local government web resources and services.